#timestamp,LO_Frequency,Hit,StdDev 
1623556815.3,286046999.2,N
1623556835.1,286046998.8,N
1623556855.9,286047000.1,N
1623556875.7,286046998.4,N
1623556895.5,286046999.5,N
1623556915.4,286046996.8,N
1623556935.2,286046999.5,N
1623556955.1,286047000.4,N
1623556956.0,286047000.4,N
1623556975.8,286047001.0,N
1623556995.6,286046998.7,N
1623557015.5,286046998.3,N
1623557035.3,286046998.1,N
1623557055.2,286047000.5,N
1623557075.9,286047002.3,N
1623557095.7,286047000.4,N
1623557115.6,286047001.0,N
1623557135.4,286046998.6,N
1623557155.3,286046998.8,N
1623557175.1,286046999.2,N
1623557176.0,286046999.2,N
1623557195.8,286046996.7,N
1623557215.7,286046998.8,N
1623557235.5,286046998.1,N
1623557255.4,286046999.0,N
1623557275.2,286046999.6,N
1623557295.0,286046999.5,N
1623557295.9,286046999.5,N
1623557315.8,286046996.9,N
1623557335.6,286047000.8,N
1623557355.5,286046998.1,N
1623557375.3,286047000.7,N
1623557395.1,286046998.8,N
1623557415.9,286046998.6,N
1623557435.7,286047001.2,N
1623557455.5,286047000.3,N
1623557475.4,286047001.0,N
1623557495.2,286047001.0,N
1623557515.1,286047000.4,N
1623557516.0,286047000.4,N
1623557535.8,286047000.5,N
1623557555.6,286047002.6,N
1623557575.5,286047001.8,N
1623557595.3,286047002.2,N
1623557615.2,286047004.0,N
1623557635.0,286047004.4,N
1623557635.9,286047004.4,N
1623557655.7,286047001.4,N
1623557675.6,286047001.6,N
1623557695.4,286047001.5,N
1623557715.3,286047001.4,N
1623557735.1,286047001.4,N
1623557736.0,286047001.4,N
1623557755.8,286047000.9,N
1623557775.7,286047002.5,N
1623557795.5,286047002.6,N
1623557815.4,286047004.4,N
1623557835.2,286047004.1,N
1623557855.0,286047003.8,N
1623557855.9,286047003.8,N
1623557875.8,286047004.3,N
1623557895.6,286047001.8,N
1623557915.4,286047000.8,N
1623557935.3,286046998.5,N
1623557955.1,286046998.2,N
1623557975.9,286047002.7,N
1623557995.7,286047004.0,N
1623558015.5,286047002.2,N
1623558035.4,286047001.7,N
1623558055.2,286047003.8,N
1623558075.1,286047005.1,Y
1623558076.0,286047005.1,P
1623558095.8,286047002.8,N
1623558115.6,286047002.3,N
1623558135.5,286047002.3,N
1623558155.3,286046999.8,N
1623558175.2,286047002.1,N
1623558195.9,286047002.4,N
1623558215.7,286047002.7,N
1623558235.6,286047002.6,N
1623558255.4,286047002.1,N
1623558275.2,286047001.0,N
1623558295.1,286047000.1,N
1623558296.0,286047000.1,N
1623558315.8,286047002.5,N
1623558335.7,286047001.0,N
1623558355.5,286047000.8,N
1623558375.3,286047000.9,N
1623558395.2,286047000.4,N
1623558415.0,286047000.5,N
1623558415.9,286047000.5,N
1623558435.8,286046998.7,N
1623558455.6,286046998.5,N
1623558475.4,286047000.6,N
1623558495.3,286047000.5,N
1623558515.1,286047001.1,N
1623558535.9,286046998.7,N
1623558555.7,286046998.4,N
1623558575.5,286047000.1,N
1623558595.4,286047000.2,N
1623558615.2,286047001.6,N
1623558635.0,286047000.4,N
1623558636.0,286047000.4,N
1623558655.8,286047002.1,N
1623558675.6,286046999.7,N
1623558695.5,286046998.7,N
1623558715.3,286047000.6,N
1623558735.1,286047002.6,N
1623558755.9,286047001.7,N
1623558775.7,286047004.4,Y
1623558795.6,286047003.7,P
1623558815.4,286047001.7,N
1623558835.2,286047002.4,N
1623558855.1,286047002.7,N
1623558856.0,286047002.7,N
1623558875.8,286047000.1,N
1623558895.6,286047002.7,N
1623558915.5,286047002.6,N
1623558935.3,286046999.7,N
1623558955.2,286046999.8,N
1623558975.9,286047002.6,N
1623558995.7,286047004.0,Y
1623559015.6,286047001.1,P
1623559035.4,286047000.6,N
1623559055.3,286046998.3,P
1623559075.1,286046998.6,N
1623559076.0,286046998.6,N
1623559095.8,286046998.4,N
1623559115.7,286046999.1,N
1623559135.5,286046998.5,N
1623559155.3,286046998.9,N
1623559175.2,286046996.8,N
1623559195.0,286046997.1,N
1623559195.9,286046997.1,N
1623559215.8,286046997.0,N
1623559235.6,286046998.6,N
1623559255.4,286047002.4,N
1623559275.3,286046998.3,N
1623559295.1,286046996.8,N
1623559315.8,286046998.8,N
1623559335.7,286046998.4,N
1623559355.5,286046998.5,N
1623559375.4,286046998.4,N
1623559395.2,286046998.1,N
1623559415.0,286046998.5,N
1623559415.9,286046998.5,N
1623559435.8,286046999.2,N
1623559455.6,286046996.5,N
1623559475.4,286046997.7,N
1623559495.3,286046999.3,N
1623559515.1,286046998.6,N
1623559535.9,286046998.5,N
1623559555.7,286046999.4,N
1623559575.5,286046999.4,N
1623559595.4,286047000.7,N
1623559615.2,286047000.8,N
1623559635.0,286047001.1,N
1623559635.9,286047001.1,N
1623559655.8,286046999.8,N
1623559675.6,286047000.5,N
1623559695.5,286046998.6,N
1623559715.3,286047000.5,N
1623559735.1,286046999.3,N
1623559755.9,286046998.7,N
1623559775.7,286046998.4,N
1623559795.5,286046998.7,N
1623559815.4,286046998.7,N
1623559835.2,286047000.6,N
1623559855.1,286047001.2,N
1623559856.0,286047001.2,N
1623559875.8,286047000.5,N
1623559895.6,286047002.5,N
1623559915.5,286047001.8,N
1623559935.3,286047001.5,N
1623559955.2,286047001.8,N
1623559975.9,286047001.9,N
1623559995.7,286047001.9,N
1623560015.6,286047004.4,Y
1623560035.4,286047001.6,P
1623560055.3,286047001.5,N
1623560075.1,286047002.5,P
1623560076.0,286047002.5,N
1623560095.8,286046998.4,N
1623560115.7,286046999.5,N
1623560135.5,286046999.3,N
1623560155.3,286046999.1,N
1623560175.2,286046998.8,N
1623560195.0,286046999.5,N
1623560195.9,286046999.5,N
1623560215.8,286046999.5,N
1623560235.6,286046997.1,N
1623560255.4,286046995.0,Y
1623560275.3,286046997.5,P
1623560295.1,286046997.3,N
1623560315.9,286046997.6,N
1623560335.7,286046996.7,Y
1623560355.5,286047000.8,P
1623560375.4,286047002.8,N
1623560395.2,286047000.3,N
